STARLINK-2518, 48333

Orbit data source: Space-Track

STARLINK-2518, 48333 is a payload satellite owned by SpaceX/Seattle (US) in LEO that was launched on Thu, 29 Apr 2021 UTC via an FALCON 9 launch vehicle from the Air Force Eastern Test Range (AFETR). Payload-class satellites include a variety of spacecraft equipped with specific instruments for various scientific and technological missions. These include communications satellites like Starlink; space stations such as the ISS; scientific satellites like the Hubble; Earth observation satellites from companies like Planet Labs, Umbra, and HawkEye 360; GPS; miniature CubeSats for education and research; and military/defense satellites.

Loading next visibility...
Identifier
48333, 2021-036BK
Orbit
LEO
Country
Flag of USUS
Related business
Manufacturer
SpaceX/Seattle
Mission
Operational Commercial Communications
Bus & Motor
STARLINK, Unknown motor
Mass
260 kg wet, ~248 kg dry
Launch date (UTC)
2021-04-29 (5 years ago)
Launch vehicle
FALCON 9
Launch site
Air Force Eastern Test Range (AFETR)
Object type
Payload
Rocket body
Debris
Shape & HBR
Box + 1 Pan, 10.1 m
Radar Cross Section
13.562 m², Large (>1 m²)

Expand to show TLE details & history
Last TLE update: 19 hours ago

TLE from 19 hours ago
0 STARLINK-2518
1 48333U 21036BK  26036.89022399  .00000183  00000-0  31183-4 0  9994
2 48333  53.0553 244.3711 0001457  89.9608 270.1547 15.06401669263244
Epoch: 2026-02-05T21:21Z
TLE epoch observation values (Epoch: 2026-02-05T21:21:55.352Z)
Latitude
-0.00011°
Longitude
147.85442°
Altitude
548.083 km
Speed
7.589 km/s
True Right ascension
16h 17m 29s
True Declination
0° 00' 00"
Sunlit
Object was in daylight at epoch
Visualization orbit readout
Latitude
Unknown
Longitude
Unknown
Altitude
Unknown
Speed
Unknown
Apparent Right ascension
Unknown
Apparent Declination
Unknown
Sunlit
N/A
Visualization observer readout
Local Sidereal Time
18:56:01
Azimuth
Unknown
Elevation
Unknown
Doppler factor
Unknown
Orbital elements
Apogee altitude
548.486 km
Perigee altitude
546.468 km
Semi-major axis
6,925.614 km
Eccentricity
0.00015
Inclination
53.0553°
RAAN
244.3711°
Arg. of periapsis
89.9608°
True anomaly
270.138°
Mean anomaly
270.1547°
Eccentric anomaly
270.14635°
Mean motion
3.76579 °/min
Orbital period
95.6 mins
BSTAR
0.000031183
Loading maneuver chart data...
Computing Atmospheric mass density...
Loading historical data...
Loading historical data...
Loading historical data...
Loading historical data...
Loading historical data...
Loading historical data...
Loading historical data...

Documentation

Showing up to 5 results
|